| time (UTC) | temp F | wind direction | speed knots | gust knots | rain 1hr in | rain 24hr in | rain mn in | humidity % | barometer mb |
| 20260505125036 | 63 | 248 | 1.7 | 6.1 | 0.00 | 0.00 | 0.00 | 61 | 1012.3 |
| 20260505124533 | 63 | 124 | 0.0 | 1.7 | 0.00 | 0.00 | 0.00 | 62 | 1012.1 |
| 20260505124029 | 62 | 269 | 0.9 | 6.1 | 0.00 | 0.00 | 0.00 | 63 | 1012.4 |
| 20260505123526 | 62 | 169 | 4.3 | 6.1 | 0.00 | 0.00 | 0.00 | 62 | 1012.4 |
| 20260505123021 | 62 | 209 | 4.3 | 6.1 | 0.00 | 0.00 | 0.00 | 63 | 1012.6 |
| 20260505122519 | 61 | 202 | 2.6 | 5.2 | 0.00 | 0.00 | 0.00 | 65 | 1012.7 |
| 20260505122016 | 61 | 217 | 2.6 | 4.3 | 0.00 | 0.00 | 0.00 | 65 | 1012.9 |
| 20260505121512 | 60 | 176 | 4.3 | 5.2 | 0.00 | 0.00 | 0.00 | 66 | 1012.6 |
| 20260505121009 | 60 | 204 | 4.3 | 6.1 | 0.00 | 0.00 | 0.00 | 66 | 1012.6 |
| 20260505120506 | 59 | 178 | 0.9 | 5.2 | 0.00 | 0.00 | 0.00 | 67 | 1012.6 |
| 20260505120006 | 59 | 200 | 2.6 | 6.1 | 0.00 | 0.00 | 0.00 | 68 | 1012.3 |
| 20260505115501 | 59 | 187 | 2.6 | 4.3 | 0.00 | 0.00 | 0.00 | 68 | 1012.6 |
| 20260505114959 | 59 | 191 | 2.6 | 2.6 | 0.00 | 0.00 | 0.00 | 68 | 1012.6 |
| 20260505114455 | 59 | 278 | 0.0 | 0.9 | 0.00 | 0.00 | 0.00 | 68 | 1012.6 |
| 20260505113952 | 59 | 223 | 1.7 | 6.1 | 0.00 | 0.00 | 0.00 | 68 | 1012.4 |
| 20260505113449 | 59 | 46 | 0.9 | 2.6 | 0.00 | 0.00 | 0.00 | 68 | 1012.3 |
| 20260505112944 | 58 | 191 | 2.6 | 4.3 | 0.00 | 0.00 | 0.00 | 68 | 1012.3 |
| 20260505112442 | 58 | 187 | 2.6 | 5.2 | 0.00 | 0.00 | 0.00 | 69 | 1012.2 |
| 20260505111938 | 57 | 201 | 1.7 | 1.7 | 0.00 | 0.00 | 0.00 | 70 | 1012.2 |
| 20260505111432 | 57 | 202 | 0.9 | 1.7 | 0.00 | 0.00 | 0.00 | 72 | 1012.2 |
| 20260505110929 | 56 | 193 | 0.9 | 1.7 | 0.00 | 0.00 | 0.00 | 73 | 1012.2 |
| 20260505110426 | 56 | 238 | 0.0 | 1.7 | 0.00 | 0.00 | 0.00 | 74 | 1012.4 |
| 20260505101857 | 56 | 225 | 0.0 | 1.7 | 0.00 | 0.00 | 0.00 | 76 | 1011.6 |
| 20260505101351 | 56 | 243 | 0.9 | 2.6 | 0.00 | 0.00 | 0.00 | 75 | 1011.5 |
| 20260505100848 | 56 | 210 | 1.7 | 4.3 | 0.00 | 0.00 | 0.00 | 75 | 1011.6 |
| 20260505100344 | 56 | 198 | 0.9 | 2.6 | 0.00 | 0.00 | 0.00 | 75 | 1011.5 |
| 20260505095840 | 56 | 205 | 0.9 | 1.7 | 0.00 | 0.00 | 0.00 | 75 | 1011.5 |
| 20260505095338 | 56 | 219 | 0.9 | 0.9 | 0.00 | 0.00 | 0.00 | 75 | 1011.6 |
| 20260505094833 | 57 | 220 | 0.9 | 1.7 | 0.00 | 0.00 | 0.00 | 74 | 1011.6 |
| 20260505094331 | 57 | 203 | 1.7 | 1.7 | 0.00 | 0.00 | 0.00 | 73 | 1011.6 |
| 20260505093826 | 57 | 195 | 2.6 | 5.2 | 0.00 | 0.00 | 0.00 | 73 | 1011.5 |
| 20260505093324 | 57 | 227 | 0.9 | 1.7 | 0.00 | 0.00 | 0.00 | 73 | 1011.4 |
| 20260505092821 | 58 | 198 | 0.9 | 2.6 | 0.00 | 0.00 | 0.00 | 72 | 1011.4 |
| 20260505092319 | 58 | 244 | 2.6 | 5.2 | 0.00 | 0.00 | 0.00 | 71 | 1011.5 |
| 20260505091816 | 58 | 197 | 0.9 | 4.3 | 0.00 | 0.00 | 0.00 | 71 | 1011.4 |
| 20260505091314 | 58 | 214 | 2.6 | 7.0 | 0.00 | 0.00 | 0.00 | 70 | 1011.3 |
| 20260505090812 | 58 | 205 | 2.6 | 4.3 | 0.00 | 0.00 | 0.00 | 72 | 1011.3 |
| 20260505090310 | 58 | 213 | 0.0 | 6.1 | 0.00 | 0.00 | 0.00 | 72 | 1011.4 |
| 20260505085807 | 57 | 199 | 3.5 | 4.3 | 0.00 | 0.00 | 0.00 | 73 | 1011.1 |
| 20260505085305 | 57 | 184 | 2.6 | 4.3 | 0.00 | 0.00 | 0.00 | 74 | 1011.1 |
| 20260505084802 | 57 | 205 | 0.9 | 1.7 | 0.00 | 0.00 | 0.00 | 75 | 1011.2 |
| 20260505084301 | 57 | 221 | 0.9 | 1.7 | 0.00 | 0.00 | 0.00 | 76 | 1011.1 |
| 20260505083757 | 57 | 214 | 1.7 | 2.6 | 0.00 | 0.00 | 0.00 | 77 | 1011.3 |
| 20260505083254 | 57 | 202 | 1.7 | 2.6 | 0.00 | 0.00 | 0.00 | 77 | 1011.2 |
| 20260505082750 | 57 | 239 | 0.0 | 1.7 | 0.00 | 0.00 | 0.00 | 77 | 1011.2 |
| 20260505082248 | 57 | 206 | 2.6 | 2.6 | 0.00 | 0.00 | 0.00 | 77 | 1011.0 |
| 20260505081743 | 57 | 188 | 1.7 | 4.3 | 0.00 | 0.00 | 0.00 | 77 | 1011.1 |
| 20260505081241 | 57 | 225 | 0.0 | 1.7 | 0.00 | 0.00 | 0.00 | 78 | 1011.1 |
| 20260505080738 | 58 | 232 | 0.0 | 0.9 | 0.00 | 0.00 | 0.00 | 77 | 1011.0 |
| 20260505080233 | 58 | 218 | 0.9 | 0.9 | 0.00 | 0.00 | 0.00 | 76 | 1011.0 |
| 20260505075729 | 58 | 178 | 2.6 | 2.6 | 0.00 | 0.00 | 0.00 | 76 | 1010.8 |
| 20260505075226 | 59 | 202 | 2.6 | 2.6 | 0.00 | 0.00 | 0.00 | 75 | 1010.9 |
| 20260505074724 | 59 | 225 | 0.9 | 2.6 | 0.00 | 0.00 | 0.00 | 75 | 1010.9 |
| 20260505074221 | 59 | 197 | 1.7 | 1.7 | 0.00 | 0.00 | 0.00 | 75 | 1010.8 |
| 20260505073718 | 59 | 199 | 2.6 | 4.3 | 0.00 | 0.00 | 0.00 | 74 | 1010.9 |
| 20260505073216 | 59 | 197 | 0.9 | 2.6 | 0.00 | 0.00 | 0.00 | 74 | 1011.0 |
| 20260505072712 | 60 | 180 | 2.6 | 2.6 | 0.00 | 0.00 | 0.00 | 73 | 1010.7 |
| 20260505072208 | 60 | 204 | 1.7 | 5.2 | 0.00 | 0.00 | 0.00 | 72 | 1010.9 |
| 20260505071704 | 61 | 190 | 2.6 | 5.2 | 0.00 | 0.00 | 0.00 | 70 | 1010.9 |
| 20260505071202 | 61 | 199 | 4.3 | 7.8 | 0.00 | 0.00 | 0.00 | 70 | 1010.8 |
| 20260505070659 | 60 | 202 | 2.6 | 2.6 | 0.00 | 0.00 | 0.00 | 71 | 1010.6 |
| 20260505070155 | 60 | 164 | 3.5 | 5.2 | 0.00 | 0.00 | 0.00 | 71 | 1010.6 |
| 20260505065651 | 60 | 191 | 2.6 | 4.3 | 0.00 | 0.00 | 0.00 | 72 | 1010.7 |
| 20260505065148 | 60 | 209 | 0.9 | 0.9 | 0.00 | 0.00 | 0.00 | 73 | 1010.6 |
| 20260505064644 | 60 | 233 | 0.0 | 1.7 | 0.00 | 0.00 | 0.00 | 72 | 1010.7 |
| 20260505064143 | 59 | 210 | 0.9 | 1.7 | 0.00 | 0.00 | 0.00 | 74 | 1010.7 |
| 20260505063640 | 58 | 221 | 0.0 | 0.0 | 0.00 | 0.00 | 0.00 | 76 | 1010.7 |
| 20260505063136 | 59 | 222 | 0.0 | 0.0 | 0.00 | 0.00 | 0.00 | 74 | 1010.5 |
| 20260505062633 | 60 | 222 | 0.0 | 0.0 | 0.00 | 0.00 | 0.00 | 74 | 1010.6 |
| 20260505062130 | 61 | 220 | 0.0 | 0.0 | 0.00 | 0.00 | 0.00 | 72 | 1010.7 |
| 20260505061627 | 61 | 209 | 0.9 | 1.7 | 0.00 | 0.00 | 0.00 | 70 | 1010.7 |
| 20260505061125 | 61 | 188 | 1.7 | 1.7 | 0.00 | 0.00 | 0.00 | 70 | 1010.4 |
| 20260505060622 | 61 | 201 | 0.9 | 1.7 | 0.00 | 0.00 | 0.00 | 70 | 1010.6 |
| 20260505060119 | 61 | 194 | 0.9 | 1.7 | 0.00 | 0.00 | 0.00 | 71 | 1010.4 |
| 20260505055614 | 61 | 217 | 1.7 | 2.6 | 0.00 | 0.00 | 0.00 | 71 | 1010.6 |
| 20260505055111 | 61 | 204 | 0.9 | 2.6 | 0.00 | 0.00 | 0.00 | 72 | 1010.5 |
| 20260505054608 | 61 | 242 | 0.9 | 0.9 | 0.00 | 0.00 | 0.00 | 72 | 1010.6 |
| 20260505054106 | 61 | 180 | 2.6 | 2.6 | 0.00 | 0.00 | 0.00 | 72 | 1010.6 |
| 20260505053603 | 61 | 209 | 0.9 | 2.6 | 0.00 | 0.00 | 0.00 | 72 | 1010.4 |
| 20260505053100 | 62 | 181 | 1.7 | 2.6 | 0.00 | 0.00 | 0.00 | 71 | 1010.5 |
| 20260505052556 | 62 | 197 | 1.7 | 4.3 | 0.00 | 0.00 | 0.00 | 71 | 1010.5 |
| 20260505052054 | 61 | 187 | 2.6 | 4.3 | 0.00 | 0.00 | 0.00 | 71 | 1010.6 |
| 20260505051551 | 61 | 205 | 1.7 | 1.7 | 0.00 | 0.00 | 0.00 | 71 | 1010.6 |
| 20260505051049 | 61 | 215 | 1.7 | 4.3 | 0.00 | 0.00 | 0.00 | 72 | 1010.3 |
| 20260505050547 | 60 | 171 | 2.6 | 2.6 | 0.00 | 0.00 | 0.00 | 73 | 1010.5 |
| 20260505041514 | 57 | 226 | 0.0 | 0.0 | 0.00 | 0.00 | 0.00 | 83 | 1010.7 |
| 20260505041012 | 57 | 226 | 0.0 | 0.0 | 0.00 | 0.00 | 0.00 | 81 | 1010.4 |
| 20260505040509 | 57 | 226 | 0.0 | 0.0 | 0.00 | 0.00 | 0.00 | 81 | 1010.7 |
| 20260505040007 | 58 | 226 | 0.0 | 0.0 | 0.00 | 0.00 | 0.00 | 80 | 1010.7 |
| 20260505035502 | 59 | 226 | 0.0 | 0.0 | 0.00 | 0.00 | 0.00 | 78 | 1010.6 |
| 20260505034959 | 59 | 226 | 0.0 | 0.0 | 0.00 | 0.00 | 0.00 | 77 | 1010.8 |
| 20260505034455 | 60 | 226 | 0.0 | 0.0 | 0.00 | 0.00 | 0.00 | 76 | 1010.7 |
| 20260505033953 | 60 | 226 | 0.0 | 0.0 | 0.00 | 0.00 | 0.00 | 75 | 1010.6 |
| 20260505033449 | 61 | 225 | 0.0 | 0.0 | 0.00 | 0.00 | 0.00 | 74 | 1010.7 |
| 20260505032948 | 61 | 225 | 0.9 | 0.9 | 0.00 | 0.00 | 0.00 | 73 | 1010.5 |
| 20260505032445 | 61 | 208 | 0.9 | 1.7 | 0.00 | 0.00 | 0.00 | 72 | 1010.7 |
| 20260505031941 | 62 | 221 | 0.0 | 0.0 | 0.00 | 0.00 | 0.00 | 71 | 1010.6 |
| 20260505031438 | 63 | 200 | 0.9 | 1.7 | 0.00 | 0.00 | 0.00 | 70 | 1010.7 |
| 20260505030935 | 63 | 233 | 0.0 | 0.9 | 0.00 | 0.00 | 0.00 | 69 | 1010.9 |
| 20260505030431 | 63 | 215 | 0.9 | 1.7 | 0.00 | 0.00 | 0.00 | 69 | 1010.5 |
| 20260505025926 | 63 | 204 | 1.7 | 2.6 | 0.00 | 0.00 | 0.00 | 69 | 1010.8 |
| 20260505025424 | 63 | 204 | 0.9 | 1.7 | 0.00 | 0.00 | 0.00 | 68 | 1010.8 |
| 20260505024923 | 63 | 210 | 1.7 | 2.6 | 0.00 | 0.00 | 0.00 | 68 | 1010.8 |
| 20260505024420 | 63 | 222 | 0.9 | 1.7 | 0.00 | 0.00 | 0.00 | 68 | 1010.9 |
| 20260505023917 | 64 | 221 | 0.9 | 1.7 | 0.00 | 0.00 | 0.00 | 67 | 1011.0 |
| 20260505023414 | 64 | 204 | 0.9 | 1.7 | 0.00 | 0.00 | 0.00 | 67 | 1010.7 |
| 20260505022911 | 64 | 208 | 1.7 | 2.6 | 0.00 | 0.00 | 0.00 | 67 | 1010.9 |
| 20260505022408 | 64 | 184 | 2.6 | 2.6 | 0.00 | 0.00 | 0.00 | 67 | 1011.0 |
| 20260505021905 | 64 | 192 | 1.7 | 2.6 | 0.00 | 0.00 | 0.00 | 66 | 1010.9 |
| 20260505021401 | 64 | 209 | 2.6 | 4.3 | 0.00 | 0.00 | 0.00 | 66 | 1010.7 |
| 20260505020857 | 64 | 205 | 0.9 | 1.7 | 0.00 | 0.00 | 0.00 | 66 | 1010.7 |
| 20260505020353 | 64 | 209 | 0.9 | 1.7 | 0.00 | 0.00 | 0.00 | 66 | 1010.9 |
| 20260505015850 | 65 | 195 | 0.9 | 2.6 | 0.00 | 0.00 | 0.00 | 65 | 1010.8 |
| 20260505015347 | 65 | 182 | 2.6 | 2.6 | 0.00 | 0.00 | 0.00 | 65 | 1010.9 |
| 20260505014845 | 65 | 197 | 1.7 | 2.6 | 0.00 | 0.00 | 0.00 | 65 | 1010.8 |
| 20260505014341 | 65 | 210 | 1.7 | 1.7 | 0.00 | 0.00 | 0.00 | 65 | 1010.8 |
| 20260505013838 | 65 | 214 | 1.7 | 2.6 | 0.00 | 0.00 | 0.00 | 64 | 1010.7 |
| 20260505013335 | 65 | 167 | 1.7 | 2.6 | 0.00 | 0.00 | 0.00 | 64 | 1010.6 |
| 20260505012834 | 65 | 211 | 0.9 | 0.9 | 0.00 | 0.00 | 0.00 | 63 | 1010.7 |
| 20260505012331 | 65 | 216 | 2.6 | 2.6 | 0.00 | 0.00 | 0.00 | 62 | 1010.5 |
| 20260505011827 | 66 | 187 | 1.7 | 1.7 | 0.00 | 0.00 | 0.00 | 62 | 1010.4 |
| 20260505011324 | 66 | 221 | 0.0 | 0.9 | 0.00 | 0.00 | 0.00 | 61 | 1010.4 |
| 20260505010820 | 66 | 256 | 0.0 | 0.9 | 0.00 | 0.00 | 0.00 | 60 | 1010.3 |
| 20260505010316 | 67 | 212 | 0.0 | 0.9 | 0.00 | 0.00 | 0.00 | 60 | 1010.2 |
| 20260505005812 | 67 | 195 | 1.7 | 1.7 | 0.00 | 0.00 | 0.00 | 59 | 1009.9 |
| 20260505005309 | 67 | 211 | 0.9 | 2.6 | 0.00 | 0.00 | 0.00 | 59 | 1010.5 |
| 20260505004807 | 68 | 239 | 0.0 | 1.7 | 0.00 | 0.00 | 0.00 | 58 | 1010.1 |
| 20260505004302 | 68 | 204 | 4.3 | 5.2 | 0.00 | 0.00 | 0.00 | 57 | 1010.1 |
| 20260505003800 | 68 | 197 | 2.6 | 2.6 | 0.00 | 0.00 | 0.00 | 56 | 1010.0 |
| 20260505003258 | 69 | 197 | 3.5 | 6.1 | 0.00 | 0.00 | 0.00 | 56 | 1010.1 |
| 20260505002754 | 69 | 220 | 3.5 | 7.8 | 0.00 | 0.00 | 0.00 | 55 | 1010.1 |
| 20260505002251 | 69 | 199 | 1.7 | 6.1 | 0.00 | 0.00 | 0.00 | 55 | 1010.1 |
| 20260505001749 | 69 | 159 | 5.2 | 7.0 | 0.00 | 0.00 | 0.00 | 54 | 1010.0 |
| 20260505001246 | 69 | 187 | 0.9 | 2.6 | 0.00 | 0.00 | 0.00 | 53 | 1009.9 |
| 20260505000743 | 69 | 195 | 2.6 | 6.1 | 0.00 | 0.00 | 0.00 | 55 | 1009.7 |
| 20260505000241 | 68 | 208 | 2.6 | 5.2 | 0.00 | 0.00 | 0.00 | 56 | 1009.8 |
| 20260504235737 | 68 | 268 | 0.0 | 0.9 | 0.00 | 0.00 | 0.00 | 58 | 1009.9 |
| 20260504235233 | 69 | 190 | 0.0 | 1.7 | 0.00 | 0.00 | 0.00 | 55 | 1009.6 |
| 20260504234731 | 70 | 204 | 0.9 | 1.7 | 0.00 | 0.00 | 0.00 | 53 | 1009.7 |
| 20260504234228 | 71 | 262 | 1.7 | 5.2 | 0.00 | 0.00 | 0.00 | 50 | 1009.9 |
| 20260504233724 | 72 | 187 | 1.7 | 2.6 | 0.00 | 0.00 | 0.00 | 47 | 1009.9 |
| 20260504233220 | 72 | 217 | 0.9 | 1.7 | 0.00 | 0.00 | 0.00 | 46 | 1010.0 |
| 20260504232717 | 72 | 203 | 0.9 | 1.7 | 0.00 | 0.00 | 0.00 | 46 | 1009.7 |
| 20260504232214 | 72 | 218 | 0.0 | 0.9 | 0.00 | 0.00 | 0.00 | 46 | 1009.9 |
| 20260504231711 | 73 | 190 | 1.7 | 2.6 | 0.00 | 0.00 | 0.00 | 45 | 1009.6 |
| 20260504231207 | 73 | 195 | 1.7 | 2.6 | 0.00 | 0.00 | 0.00 | 44 | 1009.8 |
| 20260504230703 | 73 | 296 | 0.9 | 4.3 | 0.00 | 0.00 | 0.00 | 43 | 1009.9 |
| 20260504230202 | 74 | 192 | 0.9 | 7.0 | 0.00 | 0.00 | 0.00 | 42 | 1009.7 |
| 20260504225700 | 74 | 219 | 0.9 | 6.1 | 0.00 | 0.00 | 0.00 | 42 | 1009.5 |
| 20260504225156 | 74 | 178 | 3.5 | 7.8 | 0.00 | 0.00 | 0.00 | 42 | 1009.4 |
| 20260504224653 | 74 | 204 | 4.3 | 12.2 | 0.00 | 0.00 | 0.00 | 41 | 1009.4 |
| 20260504224150 | 74 | 206 | 6.1 | 11.3 | 0.00 | 0.00 | 0.00 | 41 | 1009.5 |
| 20260504223647 | 74 | 239 | 0.9 | 5.2 | 0.00 | 0.00 | 0.00 | 42 | 1009.5 |
| 20260504223142 | 74 | 211 | 4.3 | 7.0 | 0.00 | 0.00 | 0.00 | 41 | 1009.6 |
| 20260504222640 | 74 | 231 | 4.3 | 7.0 | 0.00 | 0.00 | 0.00 | 41 | 1009.6 |
| 20260504222137 | 74 | 189 | 3.5 | 6.1 | 0.00 | 0.00 | 0.00 | 41 | 1009.5 |
| 20260504221634 | 74 | 203 | 7.0 | 7.8 | 0.00 | 0.00 | 0.00 | 41 | 1009.6 |
| 20260504221131 | 75 | 172 | 5.2 | 7.8 | 0.00 | 0.00 | 0.00 | 41 | 1009.5 |
| 20260504220627 | 74 | 206 | 1.7 | 5.2 | 0.00 | 0.00 | 0.00 | 41 | 1009.2 |
| 20260504220125 | 74 | 225 | 2.6 | 8.7 | 0.00 | 0.00 | 0.00 | 41 | 1009.5 |
| 20260504215621 | 75 | 205 | 1.7 | 4.3 | 0.00 | 0.00 | 0.00 | 41 | 1009.5 |
| 20260504215119 | 75 | 229 | 7.0 | 12.2 | 0.00 | 0.00 | 0.00 | 40 | 1009.4 |
| 20260504214614 | 75 | 224 | 7.0 | 7.8 | 0.00 | 0.00 | 0.00 | 39 | 1009.5 |
| 20260504214111 | 75 | 198 | 6.1 | 11.3 | 0.00 | 0.00 | 0.00 | 40 | 1009.2 |
| 20260504213607 | 75 | 195 | 7.8 | 11.3 | 0.00 | 0.00 | 0.00 | 40 | 1009.4 |
| 20260504213104 | 75 | 208 | 4.3 | 8.7 | 0.00 | 0.00 | 0.00 | 39 | 1009.2 |
| 20260504212600 | 75 | 163 | 8.7 | 9.6 | 0.00 | 0.00 | 0.00 | 39 | 1009.5 |
| 20260504212058 | 75 | 237 | 1.7 | 7.8 | 0.00 | 0.00 | 0.00 | 38 | 1009.5 |
| 20260504211554 | 75 | 142 | 1.7 | 6.1 | 0.00 | 0.00 | 0.00 | 39 | 1009.3 |
| 20260504211051 | 76 | 190 | 6.1 | 12.2 | 0.00 | 0.00 | 0.00 | 39 | 1009.2 |
| 20260504210549 | 76 | 127 | 3.5 | 11.3 | 0.00 | 0.00 | 0.00 | 39 | 1009.3 |
| 20260504210045 | 76 | 190 | 8.7 | 9.6 | 0.00 | 0.00 | 0.00 | 38 | 1009.1 |
| 20260504205543 | 76 | 176 | 3.5 | 5.2 | 0.00 | 0.00 | 0.00 | 38 | 1009.4 |
| 20260504205041 | 75 | 228 | 3.5 | 12.2 | 0.00 | 0.00 | 0.00 | 38 | 1009.1 |
| 20260504204538 | 76 | 208 | 6.1 | 8.7 | 0.00 | 0.00 | 0.00 | 38 | 1009.4 |
| 20260504204038 | 76 | 196 | 3.5 | 7.8 | 0.00 | 0.00 | 0.00 | 38 | 1009.4 |
| 20260504203535 | 75 | 208 | 3.5 | 7.8 | 0.00 | 0.00 | 0.00 | 37 | 1009.4 |
| 20260504203032 | 76 | 191 | 5.2 | 12.2 | 0.00 | 0.00 | 0.00 | 38 | 1009.4 |
| 20260504202527 | 76 | 200 | 3.5 | 7.8 | 0.00 | 0.00 | 0.00 | 38 | 1009.6 |
| 20260504202025 | 76 | 184 | 9.6 | 13.0 | 0.00 | 0.00 | 0.00 | 36 | 1009.4 |
| 20260504201522 | 76 | 179 | 2.6 | 5.2 | 0.00 | 0.00 | 0.00 | 38 | 1009.6 |
| 20260504201020 | 76 | 213 | 4.3 | 8.7 | 0.00 | 0.00 | 0.00 | 38 | 1009.5 |
| 20260504200516 | 76 | 264 | 3.5 | 6.1 | 0.00 | 0.00 | 0.00 | 37 | 1009.4 |
| 20260504200013 | 76 | 184 | 3.5 | 12.2 | 0.00 | 0.00 | 0.00 | 37 | 1009.8 |
| 20260504195509 | 75 | 214 | 3.5 | 6.1 | 0.00 | 0.00 | 0.00 | 38 | 1009.8 |
| 20260504195005 | 75 | 200 | 6.1 | 7.8 | 0.00 | 0.00 | 0.00 | 37 | 1009.9 |
| 20260504194501 | 75 | 196 | 2.6 | 7.0 | 0.00 | 0.00 | 0.00 | 39 | 1010.0 |
| 20260504193957 | 74 | 199 | 7.8 | 9.6 | 0.00 | 0.00 | 0.00 | 37 | 1010.1 |
| 20260504193455 | 74 | 178 | 4.3 | 6.1 | 0.00 | 0.00 | 0.00 | 38 | 1009.9 |
| 20260504192953 | 76 | 150 | 7.8 | 9.6 | 0.00 | 0.00 | 0.00 | 37 | 1010.0 |
| 20260504192450 | 76 | 165 | 10.4 | 13.0 | 0.00 | 0.00 | 0.00 | 36 | 1009.9 |
| 20260504191949 | 76 | 187 | 2.6 | 5.2 | 0.00 | 0.00 | 0.00 | 35 | 1010.0 |
| 20260504191447 | 77 | 192 | 4.3 | 8.7 | 0.00 | 0.00 | 0.00 | 36 | 1010.4 |
| 20260504190941 | 77 | 223 | 2.6 | 4.3 | 0.00 | 0.00 | 0.00 | 35 | 1010.1 |
| 20260504190438 | 76 | 172 | 4.3 | 8.7 | 0.00 | 0.00 | 0.00 | 35 | 1010.4 |
| 20260504185934 | 77 | 193 | 3.5 | 9.6 | 0.00 | 0.00 | 0.00 | 35 | 1010.2 |
| 20260504185432 | 76 | 156 | 4.3 | 5.2 | 0.00 | 0.00 | 0.00 | 35 | 1010.4 |
| 20260504184928 | 75 | 187 | 5.2 | 7.8 | 0.00 | 0.00 | 0.00 | 35 | 1010.4 |
| 20260504184424 | 76 | 228 | 4.3 | 7.8 | 0.00 | 0.00 | 0.00 | 35 | 1010.5 |
| 20260504183920 | 76 | 201 | 8.7 | 12.2 | 0.00 | 0.00 | 0.00 | 35 | 1010.7 |
| 20260504183417 | 75 | 194 | 4.3 | 13.9 | 0.00 | 0.00 | 0.00 | 35 | 1010.5 |
| 20260504182915 | 76 | 230 | 3.5 | 6.1 | 0.00 | 0.00 | 0.00 | 34 | 1011.0 |
| 20260504182412 | 77 | 207 | 4.3 | 7.0 | 0.00 | 0.00 | 0.00 | 34 | 1010.8 |
| 20260504181908 | 76 | 224 | 1.7 | 7.0 | 0.00 | 0.00 | 0.00 | 36 | 1010.9 |
| 20260504181406 | 76 | 158 | 3.5 | 6.1 | 0.00 | 0.00 | 0.00 | 36 | 1011.0 |
| 20260504180905 | 75 | 159 | 6.1 | 13.0 | 0.00 | 0.00 | 0.00 | 34 | 1011.1 |
| 20260504180403 | 75 | 194 | 4.3 | 8.7 | 0.00 | 0.00 | 0.00 | 34 | 1011.2 |
| 20260504175901 | 75 | 180 | 6.1 | 9.6 | 0.00 | 0.00 | 0.00 | 35 | 1011.3 |
| 20260504175357 | 75 | 186 | 0.0 | 4.3 | 0.00 | 0.00 | 0.00 | 36 | 1011.5 |
| 20260504174855 | 75 | 198 | 4.3 | 7.0 | 0.00 | 0.00 | 0.00 | 37 | 1011.5 |
| 20260504174352 | 74 | 180 | 8.7 | 9.6 | 0.00 | 0.00 | 0.00 | 35 | 1011.6 |
| 20260504173849 | 74 | 203 | 6.1 | 9.6 | 0.00 | 0.00 | 0.00 | 37 | 1011.5 |
| 20260504173346 | 75 | 204 | 4.3 | 13.0 | 0.00 | 0.00 | 0.00 | 36 | 1011.6 |
| 20260504172843 | 75 | 195 | 1.7 | 2.6 | 0.00 | 0.00 | 0.00 | 36 | 1011.5 |
| 20260504172340 | 75 | 246 | 2.6 | 7.0 | 0.00 | 0.00 | 0.00 | 36 | 1011.8 |
| 20260504171835 | 74 | 224 | 1.7 | 7.0 | 0.00 | 0.00 | 0.00 | 38 | 1011.8 |
| 20260504171333 | 73 | 181 | 2.6 | 4.3 | 0.00 | 0.00 | 0.00 | 38 | 1012.0 |
| 20260504170830 | 73 | 211 | 7.8 | 9.6 | 0.00 | 0.00 | 0.00 | 38 | 1012.1 |
| 20260504170327 | 73 | 193 | 7.0 | 9.6 | 0.00 | 0.00 | 0.00 | 38 | 1012.2 |
| 20260504160245 | 71 | 200 | 7.0 | 8.7 | 0.00 | 0.00 | 0.00 | 37 | 1012.9 |
| 20260504150710 | 68 | 185 | 6.1 | 7.8 | 0.00 | 0.00 | 0.00 | 39 | 1013.5 |
| 20260504150207 | 69 | 174 | 5.2 | 6.1 | 0.00 | 0.00 | 0.00 | 41 | 1013.5 |
| 20260504141136 | 63 | 179 | 0.9 | 6.1 | 0.00 | 0.00 | 0.00 | 50 | 1013.7 |
| 20260504140633 | 63 | 206 | 2.6 | 7.0 | 0.00 | 0.00 | 0.00 | 49 | 1013.9 |
| 20260504140129 | 63 | 169 | 2.6 | 8.7 | 0.00 | 0.00 | 0.00 | 49 | 1013.6 |
| 20260504130557 | 57 | 185 | 2.6 | 5.2 | 0.00 | 0.00 | 0.00 | 57 | 1014.5 |